Home   Weather   Hopkinsville   Past weeks

Flag for USA Past Weather in Hopkinsville, Kentucky, USA — Yesterday and Last 2 Weeks

Now
63 °F

Drizzle. Partly sunny.


Feels Like: 63 °F
Forecast: 45 / 62 °F
Wind: 14 mph from West

Location: Fort Campbell U. S. Army Airfield

Current Time: Jan 17, 2017 at 7:21:17 am

Latest Report: Jan 17, 2017 at 7:00 am


Visibility: 10 mi

Pressure: 29.97 "Hg

Humidity: 100%

Dew Point: 63 °F

Location of HopkinsvilleLocation

Past Weather in Hopkinsville — Graph

°F

Hopkinsville Temperature Yesterday

Maximum temperature yesterday: 67 °F (at 2:58 pm)
Minimum temperature yesterday: 45 °F (at 12:24 am)
Average temperature yesterday: 54 °F

High & Low Weather Summary for the Past Weeks

 TemperatureHumidityPressure
High71 °F (Jan 12, 11:58 am)100% (Jan 2, 6:37 am)30.81 "Hg (Jan 2, 6:37 am)
Low8 °F (Jan 7, 6:58 am)29% (Jan 9, 12:58 pm)29.75 "Hg (Jan 3, 12:58 am)
Average43 °F86%30.22 "Hg
* Reported Jan 2 6:37 am — Jan 17 6:19 am, Hopkinsville, Weather by CustomWeather, © 2017

Note: Actual official high and low records may vary slightly from our data, if they occured in-between our weather recording intervals... More about our weather records

Advertising

Hopkinsville Weather History for the Previous 24 Hours

Scroll right to see more
 ConditionsComfort  
Time TempWeatherWind HumidityBarometerVisibility
6:19 am
Tue, Jan 17
63 °FBroken clouds.18 mph100%29.96 "Hg10 mi
5:58 am63 °FPartly cloudy.14 mph100%29.95 "Hg10 mi
5:28 am63 °FPassing clouds.14 mph100%29.94 "Hg10 mi
5:14 am61 °FPartly cloudy.14 mph100%29.95 "Hg10 mi
5:03 am63 °FPartly cloudy.10 mph100%29.95 "Hg10 mi
4:58 am62 °FPartly cloudy.10 mph100%29.94 "Hg10 mi
4:30 am61 °FDrizzle. Mostly cloudy.13 mph100%29.94 "Hg10 mi
4:19 am61 °FOvercast.13 mph100%29.94 "Hg10 mi
4:07 am61 °FMostly cloudy.10 mph100%29.94 "Hg9 mi
3:33 am61 °FLight rain. Low clouds.10 mph100%29.95 "Hg7 mi
3:05 am61 °FRain. Fog.8 mph100%29.96 "Hg3 mi
2:42 am61 °FDrizzle. Mostly cloudy.7 mph100%29.97 "Hg10 mi
2:17 am61 °FLight rain. Mostly cloudy.9 mph100%29.97 "Hg10 mi
1:58 am61 °FDrizzle. Mostly cloudy.12 mph100%29.97 "Hg10 mi
1:24 am61 °FDrizzle. Overcast.12 mph100%29.96 "Hg10 mi
12:58 am60 °FLight rain. Overcast.13 mph100%29.96 "Hg8 mi
11:58 pm
Mon, Jan 16
60 °FLight rain. Passing clouds.8 mph100%29.95 "Hg9 mi
10:58 pm60 °FPassing clouds.13 mph100%29.98 "Hg10 mi
10:35 pm61 °FLight rain. Mostly cloudy.12 mph100%29.98 "Hg10 mi
9:58 pm61 °FLight rain. Mostly cloudy.8 mph100%30.02 "Hg8 mi
9:18 pm63 °FPassing clouds.16 mph88%30.01 "Hg8 mi
9:05 pm64 °FLight rain. Passing clouds.13 mph78%30.01 "Hg10 mi
8:58 pm64 °FPartly cloudy.12 mph81%30.01 "Hg10 mi
8:32 pm64 °FPartly cloudy.13 mph73%30.02 "Hg10 mi
7:58 pm64 °FPassing clouds.13 mph69%30.02 "Hg10 mi
6:58 pm63 °FPassing clouds.8 mph70%30.04 "Hg10 mi
5:58 pm63 °FPassing clouds.8 mph70%30.05 "Hg10 mi
5:13 pm64 °FPassing clouds.5 mph68%30.06 "Hg10 mi
4:58 pm65 °FPassing clouds.6 mph66%30.06 "Hg10 mi
4:43 pm66 °FPassing clouds.5 mph60%30.06 "Hg10 mi
3:58 pm65 °FPassing clouds.6 mph66%30.07 "Hg10 mi
2:58 pm67 °FSunny.8 mph61%30.06 "Hg10 mi
1:58 pm66 °FSunny.6 mph75%30.07 "Hg10 mi
12:58 pm62 °FScattered clouds.7 mph84%30.10 "Hg10 mi
11:58 am58 °FPassing clouds.8 mph100%30.14 "Hg10 mi
10:58 am52 °FOvercast.8 mph100%30.19 "Hg10 mi
10:20 am50 °FBroken clouds.7 mph100%30.20 "Hg10 mi
9:58 am50 °FDrizzle. Partly sunny.No wind100%30.23 "Hg7 mi
9:41 am50 °FDrizzle. Broken clouds.3 mph100%30.22 "Hg9 mi
8:58 am49 °FScattered clouds.8 mph100%30.22 "Hg10 mi
7:58 am46 °FPassing clouds.6 mph100%30.21 "Hg9 mi
7:07 am46 °FMore clouds than sun.7 mph100%30.19 "Hg7 mi
Weather by CustomWeather, © 2017

See weather overviewHow to use our weather pages